This is the latest recevied weather packets stored in our database for station/object CA3EVY-3. If no packets are shown the sender has not sent any weather packets the latest 10 day(s).
| Time | Temp. | Humidity | Pressure | Rain* | Wind** | Luminosity | Snow |
|---|---|---|---|---|---|---|---|
| 1777740303 | 21.11° C | 45% | 917.9 hPa | - | - | - | - |
| 1777739403 | 20.56° C | 48% | 918 hPa | - | - | - | - |
| 1777738503 | 20° C | 48% | 918.2 hPa | - | - | - | - |
| 1777737604 | 19.44° C | 50% | 918.2 hPa | - | - | - | - |
| 1777736703 | 18.89° C | 50% | 918.4 hPa | - | - | - | - |
| 1777735808 | 17.78° C | 52% | 918.4 hPa | - | - | - | - |
| 1777734905 | 17.22° C | 52% | 918.4 hPa | - | - | - | - |
| 1777734003 | 16.67° C | 56% | 918.6 hPa | - | - | - | - |
| 1777733104 | 16.67° C | 56% | 918.7 hPa | - | - | - | - |
| 1777732203 | 15.56° C | 59% | 918.8 hPa | - | - | - | - |
| 1777731303 | 15° C | 59% | 918.8 hPa | - | - | - | - |
| 1777730403 | 14.44° C | 61% | 918.9 hPa | - | - | - | - |
| 1777729504 | 14.44° C | 61% | 918.8 hPa | - | - | - | - |
| 1777728603 | 13.33° C | 64% | 918.9 hPa | - | - | - | - |
| 1777726804 | 12.22° C | 61% | 918.8 hPa | - | - | - | - |
| 1777725903 | 12.22° C | 61% | 918.6 hPa | - | - | - | - |
| 1777725003 | 11.67° C | 63% | 918.7 hPa | - | - | - | - |
| 1777724104 | 11.67° C | 63% | 918.9 hPa | - | - | - | - |
| 1777723204 | 11.67° C | 63% | 918.8 hPa | - | - | - | - |
| 1777722304 | 11.67° C | 63% | 918.8 hPa | - | - | - | - |
| 1777721403 | 11.67° C | 62% | 918.4 hPa | - | - | - | - |
| 1777720504 | 11.67° C | 62% | 918.4 hPa | - | - | - | - |
| 1777719603 | 11.67° C | 64% | 918.5 hPa | - | - | - | - |
| 1777718704 | 11.67° C | 64% | 918.3 hPa | - | - | - | - |
| 1777717804 | 11.67° C | 63% | 918.3 hPa | - | - | - | - |
* Rain since midnight (hover to see other rain measurements)
** Current wind speed in m/s (hover to see current wind gust speed)